Regional Weather Roundup
Issued by NWS

Home | Current Version | Previous Version | Graphics & Text | Print | Product List | Glossary On
Versions: 1 2 3 4 5 6 7 8 9 10 11 12 13 14 15 16 17 18 19 20 21 22 23 24 25 26 27
000
ASUS45 KBOU 290007
RWRCO

WEATHER ROUNDUP FOR COLORADO
NATIONAL WEATHER SERVICE DENVER/BOULDER CO
600 PM MDT SUN AUG 28 2016

NOTE: "FAIR" INDICATES FEW OR NO CLOUDS BELOW 12000 FEET WITH NO
SIGNIFICANT WEATHER AND/OR OBSTRUCTIONS TO VISIBILITY.

COZ001>005-013-030-031-290100-
...NORTHWEST COLORADO...

CITY           SKY/WX    TMP DP  RH WIND       PRES   REMARKS
CRAIG          FAIR      82  23  11 NW7       30.22R
HAYDEN         FAIR      73  30  20 S13G18    30.26R
MEEKER         FAIR      73  42  32 SW10      30.27R
MOUNT WERNER   NOT AVBL
STEAMBOAT SPGS PTSUNNY   72  34  25 SE8       30.29S
WALDEN         FAIR      61  32  33 S8        30.40S
$$

COZ006>008-011-290100-
...WEST CENTRAL VALLEYS...

CITY           SKY/WX    TMP DP  RH WIND       PRES   REMARKS
GRAND JUNCTION FAIR      80  44  27 NE3       30.18R
MONTROSE       FAIR      74  44  34 NW16      30.24R
EAGLE          CLOUDY    66  52  59 N9        30.36R
RIFLE          CLOUDY    68  45  43 SE22      30.28R
DELTA          NOT AVBL
NUCLA          FAIR     N/A N/A N/A N5        30.28S
$$

COZ017>023-064>068-290100-
...SOUTHWEST COLORADO...

CITY           SKY/WX    TMP DP  RH WIND       PRES   REMARKS
DURANGO        FAIR      69  41  36 SW14      30.26R
CORTEZ         FAIR      71  48  43 N7        30.24S
PAGOSA SPRINGS NOT AVBL
TELLURIDE      RAIN      48  42  79 CALM      30.53R
WOLF CREEK PAS CLOUDY    45  34  65 NE7       30.61S
$$

COZ009-010-012-014-032>034-037-058>063-290100-
...CENTRAL COLORADO...

CITY           SKY/WX    TMP DP  RH WIND       PRES   REMARKS
ASPEN          PTSUNNY   59  41  51 CALM      30.40R
BUENA VISTA    FAIR      64  37  36 NW28G33   30.34R THUNDER
COPPER MTN     NOT AVBL
BERTHOUD PASS  HAZE      32  19  59 N16       30.68S VSB<1/4 WCI  21
COTTONWOOD PAS FAIR      61  36  39 CALM      30.47R THUNDER
GUNNISON       FAIR      66  37  34 SW7       30.35R
KREMMLING      FAIR      55  43  62 S9G16     30.44R
LEADVILLE      LGT RAIN  45  41  86 N14       30.52R FOG
MONARCH PASS   FAIR      48  32  53 CALM      30.71S
SALIDA         FAIR      73  39  29 W8        30.35R
SUNLIGHT       FAIR      46  39  76 SE5       30.62R
WILKERSON PASS FAIR      50  34  53 E6        30.60R
$$

COZ069>075-290100-
...SAN LUIS VALLEY/SANGRE DE CRISTO MOUNTAINS...

CITY           SKY/WX    TMP DP  RH WIND       PRES   REMARKS
ALAMOSA        FAIR      73  36  25 CALM      30.26S
LA VETA PASS   FAIR      55  37  50 NE13      30.49R
SAGUACHE       FAIR      70  32  24 CALM      30.31S
$$

COZ035-036-038>040-290100-
...NORTHERN COLORADO FRONT RANGE...

CITY           SKY/WX    TMP DP  RH WIND       PRES   REMARKS
DENVER INTL AP PTSUNNY   81  42  25 W17       30.16R
DMNS CITY PARK   N/A     73  42  32 W3G9      30.17R
AURORA         PTSUNNY   77  42  29 W12       30.18R
FRONT RANGE AP PTSUNNY   84  39  20 W23G32    30.17R
ERIE MUNI ARPT FAIR      77  38  24 W14G22    30.15R
BOULDER MUN AP FAIR      77  41  27 SW12      30.16S
CENTENNIAL     PTSUNNY   77  40  26 NW10      30.20R
BROOMFIELD     PTSUNNY   72  45  37 W12       30.19S
FORT COLLINS   FAIR      81  43  26 NE9       30.12R
LONGMONT       FAIR      80  42  25 W5        30.15S
$$

COZ041-046-047-076>085-087-088-290100-
...PIKES PEAK/PALMER DIVIDE AND SOUTHERN FOOTHILLS...

CITY           SKY/WX    TMP DP  RH WIND       PRES   REMARKS
COLO. SPRINGS  FAIR      80  38  22 NE7       30.22R
A. F. ACADEMY  FAIR      74  40  29 N8        30.24R
SCHRIEVER AFB  NOT AVBL
ELLICOTT       NOT AVBL
FALCON         FAIR      74  41  30 E16       30.28R
FORT CARSON    FAIR      79  43  28 N10       30.18R
LIMON          CLOUDY    77  42  28 E16       30.17S
MONUMENT HILL  FAIR      72  39  30 E7        30.30R
TRINIDAD       FAIR      79  46  31 NW10      30.15S
$$

COZ042>045-048>051-090-091-290100-
...NORTHEAST COLORADO...

CITY           SKY/WX    TMP DP  RH WIND       PRES   REMARKS
GREELEY ARPT   FAIR      79  45  29 NE14G20   30.13R
AKRON          FAIR      83  46  27 SE14      30.12S
BURLINGTON     FAIR      84  51  31 S12       30.11R
WRAY           NOT AVBL
STERLING       FAIR      82  45  26 SE8       30.07R
HOLYOKE        FAIR      81  54  39 SE9       30.08S
FORT MORGAN    PTSUNNY   81  45  28 E14       30.11R
$$

COZ086-089-092>099-290100-
...SOUTHEAST COLORADO...

CITY           SKY/WX    TMP DP  RH WIND       PRES   REMARKS
PUEBLO         FAIR      88  44  21 E15G23    30.06R
LA JUNTA       FAIR      85  53  33 E14       30.05R
LAMAR          FAIR      87  54  32 SE10      30.03R
SPRINGFIELD      N/A     75  60  59 SE10      30.09R
$$




USA.gov is the U.S. government's official web portal to all federal, state and local government web resources and services.